[Iaude] MPEC J201: 2017 BR236 [a=41.43,e=0.05,i=15.1,H=7.8]

mpec at cfa.harvard.edu mpec at cfa.harvard.edu
Wed May 8 16:19:47 EDT 2024


M.P.E.C. 2024-J201                                  Issued 2024 May 8, 20:18 UT

     The Minor Planet Electronic Circulars contain information on unusual
         minor planets, routine data on comets and natural satellites,
         and occasional editorial announcements.  They are published
    on behalf of Division F of the International Astronomical Union by the
          Minor Planet Center, Smithsonian Astrophysical Observatory,
                          Cambridge, MA 02138, U.S.A.
			  
             Prepared using the Tamkin Foundation Computer Network

                              MPC at CFA.HARVARD.EDU
            URL https://www.minorplanetcenter.net/    ISSN 1523-6714

                                   2017 BR236                                   


Observations:
     K17BN6R 1C2015 03 22.38642309 22 47.03 +00 13 57.9                WEJ201T09
     K17BN6R 1C2015 03 22.43598609 22 46.86 +00 13 59.4                WEJ201T09
     K17BN6R 1C2016 04 02.33373309 27 17.13 -00 14 35.9                WEJ201T09
     K17BN6R 1C2016 04 02.36044209 27 17.06 -00 14 35.2                WEJ201T09
     K17BN6R 1C2016 12 25.50006609 39 01.35 -01 19 51.5                WEJ201T09
     K17BN6R 4C2017 01 21.36520 09 37 20.86 -01 18 12.3          23.5 z1EJ201T09
     K17BN6R 4C2017 01 21.37468 09 37 20.83 -01 18 12.3          23.5 z1EJ201T09
     K17BN6R 4C2017 01 21.38272 09 37 20.79 -01 18 12.1          23.2 z1EJ201T09
     K17BN6R 4C2017 01 21.39079 09 37 20.76 -01 18 11.9          23.6 z1EJ201T09
     K17BN6R 4C2017 01 21.39882 09 37 20.74 -01 18 11.9          22.9 z1EJ201T09
     K17BN6R 4C2017 01 21.40149 09 37 20.71 -01 18 11.6          23.1 z1EJ201T09
     K17BN6R 4C2017 01 21.40688 09 37 20.69 -01 18 11.8          23.2 z1EJ201T09
     K17BN6R 4C2017 01 21.62985 09 37 19.70 -01 18 08.9          23.9 z1EJ201T09
     K17BN6R*4C2017 01 28.38299 09 36 49.07 -01 16 36.1          25.8 g1EJ201T09
     K17BN6R 4C2017 01 28.39348 09 36 49.03 -01 16 36.0          25.5 g1EJ201T09
     K17BN6R 4C2017 01 28.41043 09 36 48.92 -01 16 35.6          25.5 g1EJ201T09
     K17BN6R 4C2017 01 28.45084 09 36 48.75 -01 16 35.0          25.0 g1EJ201T09
     K17BN6R 4C2017 02 01.50891 09 36 29.74 -01 15 27.3          23.3 i1EJ201T09
     K17BN6R 4C2017 02 01.58031 09 36 29.40 -01 15 26.0          22.6 i1EJ201T09
     K17BN6R 4C2017 02 01.58299 09 36 29.40 -01 15 26.0          22.9 i1EJ201T09

Observer details:
T09 Subaru Telescope, Maunakea.  Observers , H. Aihara, Y. AlSayyad, M. Ando,
    R. Armstrong, J. Bosch, E. Egami, H. Furusawa, J. Furusawa, S. Harasawa,
    Y. Harikane, B.-C. Hsieh, H. Ikeda, K. Ito, I. Iwata, T. Kodama, M. Koike,
    M. Kokubo, Y. Komiyama, X. Li, Y. Liang, Y.-T. Lin, R. H. Lupton, N. B.
    Lust, L. A. MacArthur, K. Mawatari, S. Mineo, H. Miyatake, S. Miyazaki, S.
    More, T. Morishima, H. Murayama, K. Nakajima, F. Nakata, A. J. Nishizawa,
    M. Oguri, N. Okabe, Y. Okura, Y. Ono, K. Osato, M. Ouchi, Y.-C. Pan, A. A.
    Plazas Malagon, P. A. Price, S. L. Reed, E. S. Rykoff, T. Shibuya, M.
    Simunovic, M. A. Strauss, K. Sugimori, Y. Suto, N. Suzuki, M. Takada, Y.
    Takagi, T. Takata, S. Takita, M. Tanaka, S. Tang, D. S. Taranu, T. Terai,
    Y. Toba, E. L. Turner, H. Uchiyama, B. Vijarnwannaluk, C. Z. Waters, Y.
    Yamada, N. Yamamoto, T. Yamashita.  Measurers S. Deen, A. Yamauchi.  8.3-m
    Subaru Telescope + CCD, 8.2-m f/2.0 reflector + CCD(HSC).

Orbital elements:
2017 BR236                                                                      
Epoch 2024 Mar. 31.0 TT = JDT 2460400.5                 Alexandersen            
M  92.42565              (2000.0)            P               Q                  
n   0.00369562     Peri.  163.52138     +0.50946828     -0.82277494             
a  41.4328049      Node   255.21718     +0.75716303     +0.56776311             
e   0.0490441      Incl.   15.10475     +0.40883518     -0.02620006             
P 267              H    7.81          G   0.15           U   5                  
Residuals in seconds of arc
150322 T09  0.0   0.0     170121 T09  0.2-  0.1-    170128 T09  0.3+  0.1-
150322 T09  0.0   0.0     170121 T09  0.1-  0.0     170128 T09  0.2-  0.0
160402 T09  0.0   0.0     170121 T09  0.1+  0.1-    170128 T09  0.1+  0.0
160402 T09  0.0   0.0     170121 T09  0.1-  0.2+    170201 T09  0.1-  0.0
161225 T09  0.1+  0.0     170121 T09  0.1-  0.0     170201 T09  0.1-  0.1+
170121 T09  0.3-  0.1-    170121 T09  0.1+  0.2+    170201 T09  0.1+  0.0
170121 T09  0.1-  0.2-    170128 T09  0.1+  0.0

Ephemeris:
2017 BR236               a,e,i = 41.43, 0.05, 15                 q = 39.4008
Date    TT    R. A. (2000) Decl.     Delta      r    Elong.  Phase     V
2024 04 08    10 07 08.0 -04 40 41  40.9039 41.6188   135.1     1.0    24.1
...
2024 04 23    10 06 34.1 -04 32 58  41.0928 41.6208   121.1     1.2    24.1
...
2024 05 01    10 06 23.5 -04 29 15  41.2084 41.6218   113.6     1.3    24.2
...
2024 05 07    10 06 19.2 -04 26 42  41.3001 41.6226   108.0     1.3    24.2
2024 05 08    10 06 18.8 -04 26 18  41.3158 41.6227   107.0     1.3    24.2
2024 05 09    10 06 18.5 -04 25 54  41.3315 41.6229   106.1     1.3    24.2
...
2024 05 15    10 06 18.5 -04 23 41  41.4274 41.6236   100.5     1.4    24.2
...
2024 05 23    10 06 23.5 -04 21 09  41.5580 41.6247    93.1     1.4    24.2
...
2024 06 07    10 06 48.0 -04 17 55  41.8038 41.6266    79.3     1.4    24.2

M. P. C. Staff               (C) Copyright 2024 MPC           M.P.E.C. 2024-J201





More information about the Iaude mailing list